Wind_Speed
5 6 6 6 6 7 6 7 7 8 8 8 9 10 11 10 11 12 14 15 13 11 12 16 18 19 19 17 18 19 19 19 19 19 19 19 18 17 17 17 16 15 13 13 13 13 13 13 12 11 11 11 11 11 11 11 11 11 10 11 10 10 10 8 7 11 11 10 10 9 9 9 5 4 4 4 4 4 4 5 5 5 5 5 6
6 6 6 6 7 7 7 6 5 6 7 7 8 9 9 9 10 12 14 14 13 11 13 16 17 17 17 15 15 16 16 17 19 19 19 18 17 16 17 18 16 13 12 13 13 13 13 12 12 12 12 11 11 11 11 11 11 11 12 11 11 12 12 9 7 11 12 11 11 9 8 9 7 6 5 4 4 4 4 5 4 5 6 5 5
7 7 7 7 7 8 8 6 5 5 5 6 7 7 7 7 8 9 11 12 12 13 14 16 16 16 16 16 16 16 15 16 17 17 17 17 16 16 16 16 16 15 14 14 14 14 13 13 12 12 11 11 11 11 11 11 12 12 13 13 13 13 13 9 7 11 13 12 11 10 9 9 8 7 6 4 3 3 5 5 5 6 7 6 5
9 8 8 8 8 8 8 7 6 5 4 5 6 6 5 6 7 9 10 11 13 14 15 16 16 17 17 15 16 16 16 16 15 15 15 15 15 14 13 13 13 14 14 14 14 13 13 12 11 12 11 11 11 11 11 12 13 12 14 15 14 13 13 11 8 10 12 11 11 9 8 9 8 7 7 5 3 4 6 7 7 7 7 6 6
10 10 9 8 8 8 9 8 6 5 4 3 4 5 5 6 7 8 10 12 14 15 15 15 16 17 16 15 16 17 16 15 14 14 15 14 14 13 12 11 11 11 12 13 13 12 12 12 11 11 11 11 12 12 12 12 12 12 14 14 13 13 13 12 10 9 10 10 9 9 8 8 8 7 7 6 4 5 7 7 7 7 7 7 7
11 11 11 10 7 7 8 7 5 5 4 3 3 4 5 6 7 8 10 13 13 13 14 15 15 15 15 16 17 16 14 13 13 13 13 12 12 12 10 10 11 12 12 11 12 12 12 12 12 12 12 12 12 12 12 12 12 11 12 10 11 13 14 13 10 10 10 9 8 9 9 8 8 7 7 7 6 6 7 7 7 8 8 8 8
13 12 12 10 7 6 6 6 5 5 5 4 3 3 4 6 6 7 10 12 13 13 13 13 14 14 14 14 15 15 13 12 13 12 11 11 11 10 9 11 12 11 10 11 11 12 12 12 12 12 12 11 12 13 13 12 11 11 11 10 10 12 13 12 11 10 9 9 8 8 8 9 8 7 7 8 7 7 7 7 8 9 8 8 8
16 15 12 11 9 7 5 6 6 5 5 4 4 4 4 5 5 7 10 11 11 11 11 12 14 15 15 14 16 15 12 12 12 12 10 10 10 9 10 12 12 10 9 10 11 12 12 11 11 12 13 13 13 13 12 12 11 11 12 12 11 11 12 11 11 10 10 9 9 8 8 8 8 8 8 8 8 7 7 8 8 8 8 8 8
18 17 14 13 13 11 7 7 8 5 4 4 4 4 5 6 6 8 9 9 10 11 11 12 14 14 14 14 14 14 12 11 12 11 10 10 10 11 12 12 12 10 10 10 11 12 12 13 13 14 15 15 15 14 14 14 13 12 13 14 13 13 12 11 11 10 10 10 9 9 8 8 8 8 9 9 8 8 8 9 8 8 8 7 7
18 18 17 16 15 13 10 8 8 7 5 3 2 3 5 6 7 8 9 11 12 12 12 12 13 13 13 13 13 13 11 10 9 10 11 12 12 13 13 13 12 11 11 10 11 11 12 14 14 14 14 14 14 15 16 16 15 14 14 15 14 13 11 10 10 10 10 10 9 9 8 8 8 8 9 9 10 10 10 10 9 9 9 8 8
18 20 20 19 17 14 12 10 9 8 8 8 5 2 4 5 5 7 8 9 12 12 12 14 15 14 13 12 12 10 9 9 9 10 11 12 14 14 13 12 12 11 10 10 10 10 11 13 14 14 14 15 15 15 16 16 15 14 14 13 13 12 11 10 9 9 9 9 9 8 8 8 8 8 8 9 11 12 11 11 10 9 9 9 9
18 20 22 23 21 18 14 11 11 10 10 10 9 6 5 4 4 7 6 6 9 11 13 15 16 15 12 10 9 8 9 11 12 11 12 12 13 13 12 12 12 11 11 10 9 10 11 13 15 16 16 15 15 15 15 15 13 13 12 12 12 12 12 11 10 9 7 7 8 7 7 7 6 7 8 8 9 11 12 11 10 9 8 8 8
19 20 22 25 26 23 17 13 12 12 12 12 11 9 9 8 5 6 7 5 7 10 12 15 15 14 10 7 7 8 11 13 12 11 11 11 11 11 11 11 11 12 12 11 9 9 11 14 17 18 17 17 16 15 15 14 13 12 11 11 11 11 11 11 11 9 8 6 5 6 7 6 6 7 9 9 8 7 8 8 8 7 7 7 7
21 22 23 25 27 26 21 15 14 14 14 13 12 11 10 10 9 8 6 5 7 9 10 12 12 11 10 9 10 11 12 12 11 10 9 9 10 10 10 11 12 11 10 8 8 9 13 17 19 19 19 18 17 15 13 13 13 12 11 10 10 10 10 9 9 9 9 8 7 8 9 9 9 9 9 9 7 6 6 7 7 6 6 8 9
23 24 25 25 27 27 22 17 16 17 15 14 13 11 10 10 11 12 8 2 8 10 9 9 11 10 10 10 10 10 12 11 10 9 8 7 8 9 9 10 12 11 10 9 11 14 18 20 21 20 19 18 16 14 13 12 11 10 9 8 7 6 6 6 7 8 9 10 10 11 11 10 11 9 8 7 7 8 9 10 9 7 8 10 10
24 24 25 25 25 26 24 20 18 18 16 15 15 14 13 14 15 16 13 9 11 13 12 12 12 10 9 9 11 11 10 9 8 8 7 6 7 8 9 11 13 13 12 12 16 20 22 22 20 18 16 15 14 14 13 11 10 9 8 7 5 3 3 4 5 6 7 8 9 9 9 9 9 8 7 7 6 7 8 9 10 10 9 8 6
24 24 25 24 23 24 25 23 20 19 17 16 15 14 14 15 15 15 13 10 10 11 11 11 11 9 6 5 7 10 9 7 6 5 5 7 9 9 9 12 15 16 14 14 17 22 24 22 19 16 16 16 14 12 11 10 8 7 5 4 2 2 2 3 5 6 6 6 6 6 7 7 7 6 6 6 6 7 7 7 8 7 5 4 4
22 23 24 23 22 23 25 25 23 21 19 16 14 12 13 13 12 12 12 11 10 10 9 8 8 8 7 4 4 6 6 5 4 4 5 6 7 9 11 14 19 20 19 19 21 21 19 18 18 18 17 15 11 8 7 7 6 6 5 5 3 3 4 5 6 7 7 6 6 6 7 7 7 7 7 6 7 7 6 6 6 5 4 5 5
20 22 23 23 23 22 24 25 25 23 21 18 15 14 14 14 12 11 10 10 11 9 7 7 6 5 6 7 7 8 7 6 5 4 5 5 6 9 11 14 17 18 18 20 20 18 16 17 18 16 13 10 8 7 6 6 6 6 7 6 4 3 4 6 7 8 7 7 7 7 7 8 8 8 8 7 7 7 7 7 6 6 6 6 5
17 19 21 22 24 24 23 24 25 24 22 20 18 17 16 14 12 10 11 12 12 10 8 9 7 4 3 4 6 8 9 9 8 6 6 6 7 8 8 8 9 10 13 14 14 16 18 17 13 10 7 5 4 4 4 4 5 5 6 5 4 5 6 7 8 8 8 7 7 7 7 8 9 8 8 8 7 8 8 8 9 8 6 4 4
18 18 19 22 25 26 25 23 22 21 21 20 19 18 17 15 13 13 14 16 16 15 13 11 8 6 5 5 6 9 10 10 10 9 8 8 8 6 4 3 4 4 6 8 8 12 15 14 10 8 8 6 5 5 5 5 5 4 4 4 5 6 6 8 8 8 7 6 5 5 6 6 6 6 6 7 8 8 9 9 10 10 8 5 4
22 22 23 25 27 28 27 25 23 21 20 19 18 18 17 16 15 15 15 16 17 17 15 14 13 12 10 9 8 10 11 10 9 9 8 7 6 5 3 3 5 5 5 6 7 9 11 10 9 9 8 8 7 6 5 4 4 4 4 5 5 5 6 7 7 6 5 5 4 4 4 4 4 4 5 7 8 8 9 9 9 9 11 11 10
22 24 26 27 27 28 28 28 27 25 24 22 21 20 18 16 16 15 14 14 15 16 15 12 11 11 10 9 8 7 8 8 7 7 7 5 5 5 5 5 6 5 4 4 5 6 7 7 7 7 7 6 6 6 5 4 4 5 5 5 5 5 5 4 4 5 5 5 5 6 6 5 4 4 4 6 8 8 8 8 7 7 10 13 13
21 23 25 26 26 26 26 26 25 25 24 23 23 22 21 19 19 18 16 15 16 17 16 14 12 11 9 8 7 7 7 7 5 5 6 6 5 6 5 3 1 1 2 3 4 4 4 4 4 5 6 6 5 4 4 4 4 4 5 4 4 4 4 4 4 5 5 5 6 7 7 7 6 6 7 7 8 8 7 7 7 8 8 9 9
22 22 22 23 23 22 21 21 21 21 21 20 21 21 19 18 18 18 18 18 18 18 18 17 16 15 12 10 9 7 6 6 4 4 4 4 3 2 0 2 3 5 6 6 6 6 6 8 10 8 7 6 4 2 2 3 3 3 3 2 2 3 3 3 3 3 4 5 6 7 9 9 8 8 8 7 5 4 4 4 4 4 4 3 2
22 22 21 21 20 19 19 19 18 18 19 19 20 19 18 16 16 16 16 17 17 17 16 16 17 16 16 14 12 10 7 6 4 4 4 4 3 2 2 2 2 2 3 4 5 6 6 7 8 6 4 3 2 2 3 3 3 3 2 1 1 2 2 2 3 4 4 6 7 7 8 8 8 7 7 6 6 5 5 4 3 3 4 4 4
21 21 21 20 20 19 19 19 18 17 17 18 18 18 18 16 16 16 17 17 16 15 14 14 15 16 17 16 15 13 11 9 8 7 6 5 5 4 3 2 1 2 2 3 3 2 2 2 3 3 2 1 1 2 1 1 1 1 1 1 1 1 1 2 3 4 5 6 7 7 8 7 7 6 6 5 6 6 6 6 5 5 5 5 4
20 20 20 20 20 20 19 19 19 18 17 17 17 18 18 17 16 17 17 17 16 15 14 13 13 14 15 14 13 12 11 11 10 10 8 7 6 5 4 4 3 3 3 3 4 5 4 4 4 3 3 3 3 3 3 3 3 3 2 2 2 2 2 2 3 3 5 6 7 7 7 7 6 6 6 5 5 6 5 5 5 5 4 4 3
19 19 18 18 19 19 19 19 19 19 18 18 18 18 17 17 16 17 17 16 15 14 12 11 11 11 11 11 11 10 10 9 10 9 9 8 7 6 5 5 5 5 4 4 5 5 6 5 4 3 3 4 5 6 5 5 4 4 4 3 3 3 3 2 1 3 5 6 7 7 7 7 6 5 5 5 5 4 4 5 4 4 4 4 3
18 18 18 18 18 18 18 19 18 19 19 19 18 18 17 16 15 15 15 15 14 13 12 11 10 9 8 8 8 8 7 7 7 6 6 5 5 5 5 4 5 5 5 5 5 5 4 4 3 3 4 5 6 6 6 6 5 5 5 4 3 4 4 2 0 3 5 6 7 7 7 7 6 5 5 5 4 4 5 5 5 4 4 4 4
16 16 17 18 18 16 16 17 17 17 17 18 17 17 17 16 16 16 15 14 13 13 13 12 11 9 7 6 6 6 6 6 5 4 4 3 4 4 4 4 4 3 3 2 3 3 2 2 3 4 6 7 8 8 7 7 7 6 5 5 4 4 4 2 2 4 5 5 7 7 7 7 6 6 6 5 5 4 5 5 5 5 5 4 4
14 14 15 16 16 15 15 15 15 15 16 16 16 16 15 15 15 16 16 15 14 14 13 12 12 11 9 7 6 6 6 6 5 5 5 4 4 4 4 4 3 2 1 1 1 2 1 2 4 5 7 7 8 8 8 8 8 7 6 5 5 5 4 3 3 4 4 6 7 7 7 6 6 6 6 6 6 5 5 6 6 6 7 7 6
13 13 12 13 14 14 13 14 14 14 15 16 16 16 15 13 12 13 14 16 15 15 14 13 13 12 10 8 6 5 5 5 5 4 3 3 3 2 2 2 2 1 1 1 1 1 2 4 5 6 8 8 8 8 9 9 8 8 7 6 6 5 5 4 4 5 5 6 7 7 7 6 7 7 7 7 6 6 6 7 7 7 8 8 7
15 14 13 12 12 12 12 13 13 14 14 15 15 15 15 15 13 12 12 14 15 16 16 15 14 14 11 8 6 3 2 2 2 2 1 1 2 2 3 3 4 3 2 1 1 1 1 2 3 4 6 7 7 7 7 7 6 6 5 4 5 5 4 4 4 5 5 5 5 6 6 6 6 6 6 6 6 6 7 8 8 7 7 7 7
14 14 14 13 12 12 12 12 12 12 13 14 14 15 15 14 13 13 12 12 13 14 15 15 16 17 15 11 8 5 3 2 1 1 1 1 2 4 5 6 6 5 4 3 3 1 0 1 1 2 3 3 3 3 3 3 2 2 2 3 3 3 4 4 4 5 5 5 5 6 6 7 7 7 6 6 7 7 7 8 8 7 7 6 6
12 12 13 13 12 12 12 12 12 13 13 13 14 14 15 14 13 12 13 13 13 13 14 14 17 20 19 16 13 9 6 4 4 3 2 2 4 5 7 7 7 6 5 4 4 2 2 1 0 1 1 1 1 1 2 2 2 2 3 3 3 4 4 4 4 5 5 5 6 7 7 8 8 7 7 7 8 8 8 8 8 7 7 7 5
12 11 11 11 11 11 12 13 14 15 14 13 13 14 14 15 14 13 13 13 13 13 13 14 15 17 17 17 16 14 10 7 6 5 4 4 5 5 6 6 5 5 5 5 5 4 4 3 3 2 2 1 1 1 1 2 2 3 3 3 4 5 6 6 6 6 6 6 8 9 9 9 9 8 7 7 7 7 7 8 7 7 8 8 6
14 13 13 11 10 10 10 11 13 14 12 12 13 13 14 15 14 13 13 13 13 13 13 14 14 14 14 14 16 17 16 13 11 9 7 6 5 6 7 7 7 7 7 6 6 5 4 4 3 3 2 2 1 2 2 2 3 3 3 4 5 6 7 7 7 8 8 8 8 9 8 8 8 8 7 8 8 7 7 7 6 6 7 7 6
13 14 15 14 12 11 11 11 11 12 12 11 12 13 13 14 14 14 13 13 13 13 14 14 14 14 13 12 12 14 16 17 16 15 13 12 11 11 11 10 9 9 9 7 6 5 4 4 3 3 3 2 2 2 3 3 3 4 4 5 6 7 7 7 7 8 8 7 7 7 7 7 7 7 7 7 8 8 8 7 7 6 6 5 5
10 12 14 15 13 12 12 11 11 11 12 12 12 12 13 13 14 14 13 13 12 13 13 13 13 14 13 12 12 13 14 14 14 14 13 13 12 11 10 10 10 10 9 8 7 6 5 4 3 3 2 2 2 2 3 3 3 4 4 5 5 6 6 7 7 7 7 7 7 7 7 7 7 6 6 6 7 7 8 7 7 6 6 5 5
9 10 12 13 12 11 10 11 11 11 11 12 12 12 11 12 12 12 13 13 12 12 12 12 12 12 13 13 13 12 12 11 11 11 11 11 10 9 9 8 8 8 8 8 7 6 5 4 3 2 2 2 2 2 3 3 3 3 4 5 5 6 6 6 7 7 6 7 8 7 7 6 5 5 5 6 7 6 6 6 5 5 5 5 5
7 8 9 9 10 10 9 9 10 10 10 10 11 11 11 11 10 11 12 12 12 12 12 11 10 10 11 12 13 12 10 9 9 9 9 9 9 9 8 8 7 7 7 7 7 6 5 4 3 2 1 2 2 2 2 3 3 3 4 4 5 5 5 5 6 7 7 7 9 9 8 7 6 6 6 6 5 5 5 5 5 4 4 4 4
6 6 7 7 7 8 8 8 8 9 9 10 10 10 10 10 10 9 10 11 11 11 11 11 10 9 11 13 13 12 9 8 8 8 8 8 8 8 8 7 8 9 9 9 8 7 5 4 2 2 1 1 1 1 1 2 2 3 3 3 4 4 4 4 5 6 6 6 7 7 7 6 4 4 5 5 5 4 4 4 4 3 3 3 4
5 5 5 6 6 6 7 7 7 7 9 10 10 10 9 9 9 9 9 9 10 10 10 10 10 9 10 12 12 11 9 9 8 7 7 7 7 7 7 7 9 11 10 10 9 7 5 3 2 1 1 1 0 1 2 3 2 2 2 3 2 2 3 5 6 7 8 7 5 4 4 5 5 3 3 4 4 4 3 3 3 2 2 2 2
5 4 5 5 5 5 6 6 6 6 8 9 9 9 8 9 9 9 9 9 9 9 8 8 9 9 9 9 10 9 9 9 9 8 8 7 7 7 6 7 9 10 9 9 9 8 6 4 3 2 2 2 2 2 2 4 4 3 4 5 4 4 5 8 8 8 8 7 5 3 2 3 3 3 3 3 3 3 3 2 2 2 2 1 0
4 4 4 4 5 6 6 5 5 6 6 7 7 8 8 8 8 8 8 8 9 8 8 8 8 8 8 8 8 8 9 9 9 9 8 7 7 6 6 7 9 10 9 8 9 8 6 5 3 3 3 3 4 4 3 4 4 4 5 6 6 6 7 9 8 7 7 7 6 4 4 2 1 3 5 5 2 2 4 4 3 2 2 2 1
5 4 3 4 4 5 5 5 5 6 6 7 7 7 7 8 8 8 8 9 9 9 8 8 8 9 9 8 8 8 9 8 8 8 8 7 6 6 6 8 9 10 9 9 8 8 7 6 5 5 6 6 5 5 4 4 4 4 5 6 6 6 7 8 9 8 8 7 6 6 6 4 1 2 3 4 3 3 3 3 3 3 3 2 2
4 3 3 3 4 4 5 5 6 6 6 6 7 7 7 8 8 8 8 9 9 9 9 9 9 10 10 9 9 10 10 9 8 7 7 7 6 6 8 10 10 9 9 9 9 8 8 7 6 6 7 7 6 4 3 3 3 3 4 5 5 6 6 7 8 9 9 8 7 7 7 6 5 4 5 6 5 4 3 2 2 3 2 2 2
3 3 3 3 3 4 4 5 5 5 6 6 7 8 8 8 8 8 8 9 9 10 10 11 11 11 10 9 10 10 10 10 8 8 7 7 6 6 8 10 10 10 10 10 10 9 9 9 8 8 8 7 5 4 3 3 3 3 3 4 4 5 6 7 8 9 10 10 9 8 7 8 8 7 7 7 7 7 6 5 5 4 3 3 4
3 2 3 3 3 4 4 5 5 5 6 6 7 8 8 8 8 8 8 9 9 10 10 11 11 11 10 9 9 10 10 9 9 8 8 7 7 6 7 9 10 10 10 10 10 11 11 11 10 10 9 7 5 4 4 3 4 4 4 5 5 5 5 6 7 8 9 10 10 9 9 9 9 8 7 7 6 6 6 7 7 6 5 4 5
1 2 2 3 3 4 5 5 5 5 6 6 6 7 7 8 8 8 8 8 9 9 9 10 11 11 9 8 8 9 9 9 9 9 8 8 7 7 7 8 9 9 9 9 10 11 12 13 13 12 11 9 6 5 5 5 4 5 5 5 6 6 6 6 6 7 8 9 9 10 10 9 9 8 7 6 6 5 6 6 7 7 6 5 6
Wind_Direction
344 331 322 316 312 309 314 322 318 313 308 287 263 250 240 232 226 227 234 236 230 228 224 214 209 206 203 206 212 210 202 197 198 200 199 197 192 189 192 196 198 198 192 189 188 191 200 198 187 191 194 187 191 194 194 198 193 194 201 199 204 199 190 203 181 150 152 159 158 169 171 163 169 184 180 166 172 191 198 192 181 167 167 171 167
349 334 322 309 306 303 298 303 307 309 318 305 265 240 232 227 223 226 231 230 223 213 211 210 210 211 210 209 213 212 207 205 203 200 197 193 188 184 188 192 192 191 193 192 189 188 190 191 189 192 191 188 193 193 194 198 196 197 201 199 201 195 186 194 179 154 152 150 152 164 165 155 160 184 193 188 193 198 194 197 182 161 174 188 181
349 330 314 298 295 293 286 284 283 293 319 318 283 250 239 232 225 227 228 225 217 206 205 209 212 217 218 218 221 215 208 210 209 201 194 191 190 186 188 190 187 188 195 193 188 185 184 186 188 190 190 189 191 192 194 197 198 201 202 200 198 188 181 185 174 158 155 153 154 157 161 162 164 178 192 192 197 195 190 192 178 170 184 193 196
5 346 322 301 292 289 285 276 266 274 307 316 296 275 262 250 235 227 223 219 213 206 206 208 210 216 217 217 222 222 213 207 203 197 190 187 188 186 185 188 187 188 193 191 188 186 181 181 187 190 190 190 190 191 195 198 198 204 205 198 191 184 178 174 169 165 160 160 161 160 167 173 167 172 185 185 180 176 182 189 181 183 196 189 198
12 359 344 326 302 287 287 281 262 260 279 294 290 282 271 260 248 233 223 218 214 207 206 207 209 214 211 200 204 214 213 201 191 189 183 177 180 182 182 187 192 193 195 195 194 189 182 182 188 190 190 191 192 190 195 198 197 204 210 196 179 179 178 169 166 170 168 168 171 170 174 177 171 177 181 176 178 175 182 193 184 188 206 198 205
10 358 349 343 322 293 293 298 278 259 269 280 280 288 285 268 254 241 229 221 214 206 204 207 209 209 205 197 194 200 201 192 185 184 181 179 181 182 180 186 194 195 195 198 198 191 186 185 187 190 191 190 191 188 189 194 195 202 211 195 176 176 175 169 169 174 175 178 180 180 183 183 183 189 188 183 186 180 182 193 190 195 211 210 215
14 9 1 355 345 319 307 316 306 263 257 270 264 280 300 283 262 244 232 220 212 208 208 211 207 200 201 200 191 188 188 188 187 185 184 188 188 186 187 190 193 192 189 190 192 189 187 186 186 187 186 188 192 187 183 188 192 196 198 191 183 179 174 173 176 178 182 188 189 191 194 194 194 199 203 198 191 187 189 192 193 200 211 209 208
24 26 20 18 17 2 339 339 338 291 251 252 250 251 272 273 258 241 232 222 213 214 217 216 207 198 199 196 183 177 181 189 191 188 189 194 194 195 197 193 187 184 182 183 185 185 181 177 180 183 184 188 191 186 183 185 185 188 189 184 180 178 176 179 184 188 193 195 196 198 197 199 201 201 207 208 202 202 203 200 199 199 206 211 209
34 39 39 39 38 30 15 2 357 335 285 261 253 254 263 262 256 242 231 221 215 216 221 219 210 201 198 191 177 171 179 194 196 189 189 193 196 199 194 187 182 181 183 179 176 182 184 179 181 186 187 188 188 186 184 180 175 177 181 177 175 177 180 185 192 196 200 202 203 202 201 205 208 207 210 210 206 208 209 209 208 200 203 214 218
39 45 48 49 48 43 35 25 18 14 8 353 293 271 277 271 263 252 236 225 222 225 226 217 205 196 193 188 181 177 186 204 203 192 190 188 192 195 188 181 181 182 185 184 180 186 191 188 186 185 185 184 185 184 180 175 173 176 178 178 179 183 185 190 197 200 205 208 207 207 211 215 211 209 211 208 206 209 210 211 212 210 213 215 217
41 45 48 49 48 45 40 35 33 34 32 26 24 0 306 285 268 261 249 230 225 227 221 207 198 195 193 190 191 193 199 205 199 191 188 185 187 189 183 182 184 183 188 192 193 195 193 189 185 181 178 177 176 174 171 171 174 174 175 179 181 181 180 182 189 197 206 213 212 212 218 219 212 206 206 209 213 218 218 216 215 214 220 223 225
42 44 45 44 42 39 36 39 42 41 40 33 30 21 352 326 281 265 263 238 223 220 210 199 195 194 193 188 192 196 191 188 185 182 182 184 187 186 184 187 186 185 191 195 199 201 195 190 185 176 171 169 168 168 166 165 166 166 169 174 179 182 182 183 185 188 199 214 217 218 221 220 213 202 201 205 213 223 224 220 217 212 219 238 242
43 42 42 41 39 34 31 38 45 43 43 39 29 19 10 9 352 299 280 244 212 207 202 197 191 187 179 168 169 171 169 170 172 174 177 180 184 184 188 192 190 191 196 195 195 196 189 184 179 170 166 164 163 165 166 165 165 170 176 180 185 191 195 198 200 200 203 205 203 212 214 208 205 211 219 218 212 218 223 220 222 219 221 238 234
40 41 42 40 38 33 31 40 49 47 48 45 35 25 20 25 26 4 321 246 197 186 190 185 173 162 152 149 159 163 164 165 168 173 174 175 180 186 188 190 191 195 199 197 197 192 183 178 173 167 166 165 163 163 167 171 173 176 179 181 186 192 195 201 208 212 214 208 204 218 224 222 225 233 243 245 232 225 225 222 222 216 216 230 228
37 39 40 41 40 36 36 44 50 49 50 52 49 45 42 47 53 48 37 120 143 131 133 134 129 131 138 148 158 160 161 164 170 178 182 182 186 190 190 190 192 195 200 203 198 186 176 172 171 171 172 169 166 164 160 161 163 162 161 162 166 175 185 194 200 206 214 215 216 224 228 229 234 239 246 247 240 236 234 230 230 233 241 246 244
38 38 38 40 41 40 42 47 49 46 48 54 58 62 68 71 73 71 71 96 116 116 119 121 120 127 141 156 164 162 160 164 171 181 192 202 206 205 201 199 195 194 198 200 192 181 174 171 173 177 175 165 159 158 152 149 151 149 146 145 141 142 165 195 204 206 212 216 217 221 224 227 233 239 242 241 242 246 247 246 249 252 256 260 257
41 41 40 40 41 43 47 49 50 48 47 49 54 64 74 76 76 77 82 99 114 115 117 116 116 124 139 163 168 159 155 160 171 190 207 214 217 218 216 207 200 197 196 191 185 182 179 178 176 170 162 153 148 149 147 146 150 157 164 172 178 191 206 215 218 215 214 215 217 219 223 227 234 241 246 248 247 245 243 244 245 243 244 252 247
44 45 44 44 46 47 48 50 52 53 51 48 49 60 69 71 75 80 88 103 110 105 104 112 120 132 145 163 154 136 137 149 176 212 219 212 217 221 216 207 199 195 187 180 183 187 182 174 168 160 154 152 152 154 155 156 165 187 212 224 230 231 227 229 227 220 215 216 219 220 219 222 233 242 246 244 237 230 222 221 223 214 208 216 223
46 49 50 51 54 53 49 48 49 52 53 51 52 59 65 66 71 80 89 104 111 106 112 133 139 131 138 157 159 150 153 161 176 206 208 199 210 215 209 202 198 193 185 180 182 185 175 162 158 158 158 161 167 176 182 178 181 200 216 220 229 244 237 231 225 217 215 216 219 222 223 226 234 238 234 228 220 214 215 220 227 230 226 225 231
49 52 53 55 59 59 55 50 48 50 54 56 57 59 61 62 66 77 88 100 108 108 112 130 148 150 114 124 148 153 156 161 165 176 185 187 196 205 206 199 193 192 188 181 169 162 162 161 160 166 178 188 198 214 223 211 198 207 216 218 241 255 237 222 216 213 211 211 212 216 220 225 230 230 225 223 222 223 227 230 232 232 229 232 246
58 57 59 62 64 65 64 59 54 54 56 60 63 65 66 68 74 82 90 95 98 98 94 95 108 117 101 98 123 132 133 141 152 162 171 177 182 192 206 198 177 177 187 184 161 155 166 176 186 203 220 241 260 259 249 236 224 221 225 232 245 245 224 206 203 202 197 194 199 211 218 220 222 221 222 227 232 235 239 238 235 230 217 197 197
68 67 67 68 68 69 70 68 66 64 60 59 61 64 66 69 70 72 78 84 86 86 85 82 83 88 90 91 104 114 116 122 135 146 153 159 162 165 165 156 158 166 185 195 189 185 193 206 219 227 236 248 253 246 230 219 214 210 214 217 214 209 199 191 187 181 173 173 179 185 188 190 195 203 220 233 235 235 236 237 237 230 212 194 182
73 73 73 72 71 71 72 71 69 68 67 65 64 66 68 69 68 65 63 68 73 74 73 74 76 82 85 83 81 90 101 109 120 130 130 128 136 142 136 128 131 141 164 189 195 197 203 213 224 230 229 225 224 218 200 182 174 176 180 179 172 163 161 162 157 153 162 176 185 184 175 163 163 178 199 217 223 224 227 230 225 211 202 200 200
76 76 77 76 75 73 72 70 67 66 66 66 66 68 69 70 72 71 68 66 67 67 65 64 64 64 67 72 76 81 90 98 116 130 124 119 126 130 126 118 119 223 250 237 220 204 195 208 234 242 236 228 218 199 172 153 147 151 154 151 144 135 131 135 145 160 178 186 191 199 196 180 169 178 193 205 213 214 211 207 202 197 198 203 208
76 76 77 79 79 77 73 69 66 64 63 63 63 63 63 64 65 66 67 67 67 65 63 63 63 62 60 58 59 63 73 84 99 109 106 110 121 120 0 296 284 273 261 248 237 230 230 242 250 251 243 234 226 186 112 107 108 103 103 115 130 134 137 142 150 163 182 186 188 202 208 200 196 202 203 196 186 176 170 173 183 190 189 182 166
77 76 76 77 79 80 78 74 70 67 65 63 62 60 58 59 60 60 61 62 63 65 66 66 66 67 66 62 58 56 58 65 72 71 62 56 45 19 345 309 284 265 244 224 218 221 222 224 226 222 204 185 159 87 69 73 73 64 60 69 126 150 156 164 166 175 194 201 199 199 198 196 196 195 183 160 140 130 128 126 122 121 119 103 82
76 76 75 76 76 77 78 78 75 73 72 71 69 67 64 62 62 62 62 59 59 61 64 67 69 70 68 66 64 63 64 65 66 63 51 38 32 31 35 49 85 121 126 117 122 149 163 140 130 132 138 136 99 68 58 63 67 87 157 192 202 206 214 227 225 220 216 211 200 189 179 171 166 156 141 130 128 126 122 119 115 113 116 116 108
73 71 69 71 73 73 74 75 74 72 72 72 72 71 67 62 60 59 58 56 54 54 55 59 64 67 69 69 67 64 61 60 60 58 51 42 38 41 46 56 72 89 97 89 85 89 91 89 96 108 122 131 136 147 164 175 180 191 210 225 237 257 279 280 258 226 201 188 177 167 155 142 133 126 119 114 111 106 102 103 102 103 108 113 117
71 70 67 66 67 67 67 69 68 66 65 63 62 62 60 58 56 53 50 48 46 44 45 50 55 59 63 67 70 67 61 53 47 44 40 39 39 37 38 45 57 69 81 92 95 97 99 96 95 106 127 146 164 175 184 195 206 216 227 236 256 290 312 318 253 183 172 166 158 147 134 125 121 120 118 115 107 102 104 102 100 109 119 118 114
66 67 67 67 67 65 64 63 60 58 56 54 52 52 51 51 51 50 47 44 39 35 35 38 41 43 43 49 58 63 62 56 47 36 28 27 30 36 40 48 60 72 83 93 99 105 114 122 131 147 162 176 192 204 213 222 229 233 237 247 278 310 324 332 197 170 163 157 155 147 132 123 124 125 124 121 111 105 107 107 108 113 113 114 116
65 63 64 67 67 64 62 61 57 53 51 50 48 46 44 42 43 44 44 41 35 32 30 30 33 36 34 36 43 50 61 70 71 70 71 72 75 81 82 77 73 76 86 104 110 108 116 162 187 194 199 204 213 223 230 235 235 235 240 253 278 301 307 293 194 169 160 157 158 149 132 126 131 132 129 128 122 113 108 106 112 118 119 121 121
67 63 60 62 64 63 60 58 55 51 49 48 48 47 45 41 38 36 37 37 36 34 31 29 30 31 32 37 45 55 70 84 91 96 102 109 112 113 111 104 95 87 80 116 155 154 194 249 242 232 224 221 225 229 231 231 230 230 238 254 268 281 278 239 181 151 143 148 150 143 132 134 139 134 129 129 129 126 120 113 114 120 121 120 117
69 68 63 58 58 60 58 55 53 51 48 47 46 46 48 48 43 35 28 27 27 28 31 36 37 34 30 30 38 59 78 86 93 99 101 105 104 92 80 67 48 18 336 314 281 206 221 246 247 241 235 231 231 230 228 227 230 234 241 250 252 247 235 210 181 158 151 153 157 151 142 139 140 137 134 132 129 126 120 113 112 112 110 108 108
68 72 74 68 61 59 58 55 53 51 49 47 46 44 44 45 46 42 32 26 21 17 19 27 33 35 32 24 18 27 64 89 104 110 93 77 57 30 19 9 354 341 333 345 0 6 248 247 242 237 237 234 230 227 228 230 233 235 237 236 229 221 208 189 172 160 148 143 144 140 130 127 130 130 129 127 124 118 112 109 109 109 106 105 106
63 66 70 70 64 61 60 57 54 53 50 47 45 44 41 40 39 38 36 33 29 22 18 15 13 16 21 22 13 355 331 296 258 246 256 341 11 11 13 15 14 15 29 50 59 64 49 268 246 238 240 236 227 225 227 225 218 216 212 201 191 184 174 158 151 145 135 127 126 125 126 133 138 140 144 140 127 115 110 109 110 112 110 108 107
63 60 60 62 62 64 63 60 58 58 53 47 44 43 40 39 38 36 34 32 30 27 24 16 6 4 8 14 13 3 342 315 303 295 300 337 4 22 29 29 32 37 44 50 56 60 65 73 123 200 194 180 177 180 184 182 168 165 172 171 165 161 153 145 140 136 131 129 131 130 134 139 137 136 139 136 125 119 118 118 120 123 121 114 107
64 60 59 59 59 60 60 57 55 55 51 46 43 41 38 36 37 37 35 34 31 27 24 20 15 10 8 9 11 13 12 356 338 335 336 336 349 24 47 47 44 49 52 51 52 52 53 55 60 69 77 82 107 136 141 146 147 149 152 154 157 159 158 152 144 136 133 137 142 140 139 137 132 125 123 120 117 118 122 122 123 121 113 104 97
64 65 72 76 70 62 57 51 48 48 47 42 40 38 36 35 36 37 35 33 31 29 25 21 20 19 17 15 17 22 29 34 33 28 28 28 31 48 63 69 68 66 61 53 48 49 51 51 54 59 61 64 81 102 107 116 125 127 130 135 137 141 143 137 126 121 125 132 135 132 128 124 121 118 118 118 118 121 123 121 116 109 99 94 90
57 60 69 75 72 65 61 55 48 45 44 40 36 34 35 34 34 36 35 31 29 29 27 24 22 22 25 33 38 35 35 42 50 53 56 61 63 62 63 63 61 61 61 57 49 43 40 40 45 48 47 55 77 92 102 114 121 121 124 125 123 125 130 129 122 121 125 129 130 131 130 125 118 115 115 117 118 121 122 120 117 112 102 93 85
58 58 64 69 68 61 57 56 52 46 43 40 35 33 35 35 34 34 35 32 29 27 26 26 25 25 29 37 47 48 41 36 41 48 53 56 58 56 52 48 44 42 44 45 44 41 32 25 31 38 44 57 75 91 104 113 115 117 123 129 131 132 134 134 133 133 135 137 138 136 128 117 107 107 118 124 123 121 119 116 115 111 102 89 74
62 58 59 64 66 62 56 54 51 46 42 41 38 36 35 35 35 34 34 33 30 27 27 26 23 25 30 32 37 45 45 35 31 35 37 38 40 39 37 35 30 25 22 23 27 30 29 26 25 28 40 60 63 70 92 103 106 116 124 129 135 137 134 135 139 140 138 141 143 137 128 124 128 138 142 137 129 121 116 111 109 105 95 84 72
73 67 60 59 62 61 56 51 48 44 40 38 38 39 37 34 32 32 32 31 29 26 26 25 19 17 20 22 27 36 39 30 25 26 25 23 22 20 19 19 14 6 2 0 360 1 8 15 22 25 40 75 80 75 86 94 101 119 127 128 134 135 133 142 150 146 142 152 159 153 142 139 151 157 146 134 128 128 126 121 113 106 97 84 72
79 74 66 59 57 57 54 51 46 40 36 34 35 37 36 33 30 28 27 26 26 24 23 23 20 10 3 5 14 25 25 15 12 14 12 11 9 6 5 3 355 349 347 345 343 343 346 351 5 14 14 69 97 107 122 119 118 123 129 134 143 141 136 145 155 149 143 149 158 153 136 120 123 141 141 136 138 145 140 129 119 107 96 78 63
78 72 63 56 53 51 48 47 42 33 30 31 30 30 30 28 27 25 23 20 19 19 17 16 16 14 7 3 8 13 10 2 358 358 357 358 360 359 355 347 344 345 345 342 341 342 339 334 333 325 314 318 174 219 207 193 186 168 148 149 157 163 171 178 178 172 163 148 130 126 130 123 119 131 147 148 150 149 138 132 136 133 122 95 57
89 83 69 59 54 47 40 38 33 27 27 29 26 22 22 21 19 19 18 14 9 7 8 7 5 6 7 5 3 2 0 357 352 349 348 349 351 355 352 346 347 351 350 343 341 344 343 335 322 306 298 288 276 267 231 208 212 216 199 190 195 204 204 200 194 187 177 161 136 117 133 133 125 139 150 144 142 151 154 155 164 159 151 151 155
101 90 78 67 57 44 35 32 27 24 24 22 18 16 14 12 9 6 5 3 1 358 356 354 351 349 350 352 352 352 352 350 346 342 340 339 343 348 348 347 352 357 354 344 339 340 339 332 318 308 308 299 287 279 257 223 217 220 219 219 221 218 212 206 202 197 194 187 177 172 168 159 180 194 176 154 143 181 187 181 180 181 180 184 209
91 84 76 70 56 37 27 23 20 20 17 10 5 5 2 359 358 355 349 348 350 349 344 340 337 333 333 334 336 336 337 338 339 338 333 330 330 333 333 338 348 354 354 350 347 345 341 334 320 308 306 304 297 285 268 247 234 226 226 232 235 230 222 215 210 209 211 213 214 210 196 178 183 238 206 179 176 210 214 205 206 210 195 174 182
78 72 64 62 53 37 23 13 7 8 7 1 357 357 352 347 347 347 344 342 341 338 333 330 327 325 324 325 327 329 330 329 328 329 328 326 321 314 317 326 336 342 345 347 349 347 342 336 329 318 309 303 296 280 257 244 240 238 237 242 244 241 237 232 227 227 229 231 233 232 222 207 201 213 221 209 195 193 205 213 217 221 205 180 199
72 66 53 44 40 30 18 7 0 355 352 351 352 351 348 345 343 340 339 339 337 334 331 329 326 324 323 322 322 327 331 330 324 319 320 322 317 307 306 317 328 333 334 335 339 342 341 336 332 328 321 309 292 273 255 247 250 255 256 257 258 256 252 246 241 239 239 239 237 237 238 234 226 224 228 224 209 200 204 208 203 200 204 207 213
59 54 40 28 24 18 7 358 354 348 342 342 346 345 343 344 344 339 335 336 336 335 334 333 330 329 329 328 326 328 332 332 328 323 320 318 317 310 303 310 322 329 328 328 333 341 344 342 337 331 327 317 294 266 258 261 268 272 273 271 268 266 263 258 249 241 239 238 236 235 236 237 233 229 232 236 226 213 211 212 205 198 205 221 218
26 20 11 359 358 359 354 349 347 342 335 331 333 336 337 340 340 336 333 333 332 331 332 333 334 334 335 338 339 339 338 338 336 332 325 317 316 313 304 306 319 327 328 326 330 335 340 343 342 336 330 323 307 281 267 267 275 281 281 279 276 271 266 260 251 241 235 232 231 232 233 234 231 226 224 229 231 226 223 222 210 195 194 219 230
Height
1518 1517 1516 1515 1514 1513 1511 1510 1509 1507 1505 1504 1504 1503 1503 1502 1502 1502 1501 1501 1502 1502 1504 1505 1507 1508 1510 1513 1515 1515 1517 1517 1517 1517 1518 1519 1521 1522 1524 1526 1528 1529 1531 1533 1534 1535 1537 1537 1539 1541 1542 1543 1544 1545 1547 1548 1549 1551 1552 1553 1554 1554 1555 1556 1556 1558 1560 1561 1563 1563 1563 1564 1565 1565 1565 1566 1566 1567 1567 1568 1568 1569 1570 1571 1571
1517 1516 1514 1513 1512 1511 1510 1509 1508 1507 1505 1503 1502 1502 1502 1502 1501 1501 1501 1502 1502 1503 1504 1505 1508 1510 1512 1515 1515 1515 1516 1517 1516 1516 1517 1518 1520 1521 1523 1525 1527 1529 1530 1532 1533 1535 1536 1537 1539 1540 1541 1542 1544 1545 1546 1548 1549 1550 1551 1552 1553 1553 1554 1555 1555 1557 1559 1560 1562 1563 1563 1564 1565 1566 1565 1566 1566 1567 1567 1568 1568 1569 1571 1571 1571
1516 1514 1513 1512 1511 1510 1509 1508 1507 1506 1504 1503 1502 1501 1501 1501 1501 1501 1501 1502 1503 1503 1504 1505 1508 1510 1513 1515 1514 1514 1516 1516 1515 1515 1516 1518 1519 1521 1523 1524 1526 1528 1529 1531 1532 1533 1535 1536 1538 1539 1540 1542 1543 1544 1546 1547 1548 1549 1550 1550 1550 1551 1553 1554 1555 1557 1559 1560 1561 1563 1563 1564 1565 1566 1565 1566 1566 1567 1567 1568 1568 1570 1570 1571 1571
1515 1514 1512 1511 1510 1509 1508 1508 1507 1505 1503 1502 1502 1502 1501 1501 1502 1502 1502 1502 1503 1503 1504 1506 1508 1510 1512 1513 1513 1514 1514 1514 1515 1515 1516 1518 1519 1521 1523 1524 1525 1526 1528 1530 1531 1532 1534 1535 1537 1538 1539 1541 1542 1544 1545 1546 1547 1547 1548 1548 1549 1550 1552 1554 1555 1557 1559 1560 1561 1562 1563 1563 1564 1565 1565 1565 1565 1566 1568 1568 1569 1570 1570 1571 1572
1515 1513 1512 1511 1510 1509 1508 1507 1506 1505 1503 1502 1502 1502 1501 1502 1502 1502 1502 1503 1503 1504 1505 1507 1509 1511 1512 1513 1513 1513 1513 1514 1515 1516 1517 1518 1520 1521 1522 1524 1525 1526 1527 1529 1530 1531 1532 1534 1536 1537 1539 1540 1542 1543 1545 1545 1546 1546 1546 1546 1548 1550 1552 1553 1555 1557 1558 1560 1561 1562 1563 1563 1564 1565 1565 1565 1566 1566 1567 1568 1568 1570 1570 1570 1571
1515 1513 1512 1510 1509 1508 1507 1507 1506 1505 1503 1502 1501 1502 1502 1502 1502 1502 1502 1503 1504 1505 1506 1508 1509 1511 1512 1513 1513 1513 1513 1515 1516 1517 1518 1519 1520 1521 1522 1523 1524 1525 1527 1528 1529 1530 1532 1533 1535 1537 1538 1540 1541 1542 1543 1544 1545 1546 1545 1545 1547 1549 1551 1553 1555 1557 1558 1559 1560 1561 1562 1563 1563 1564 1564 1565 1566 1566 1567 1568 1568 1569 1569 1569 1570
1515 1513 1512 1510 1509 1508 1508 1507 1506 1504 1503 1502 1502 1501 1501 1501 1501 1502 1502 1502 1504 1505 1506 1508 1509 1510 1511 1512 1513 1514 1514 1516 1517 1518 1519 1520 1520 1521 1522 1523 1524 1526 1527 1528 1529 1530 1532 1533 1535 1536 1538 1539 1540 1541 1542 1544 1545 1545 1546 1546 1547 1548 1550 1553 1555 1557 1558 1559 1560 1561 1561 1562 1562 1563 1564 1564 1565 1566 1567 1567 1568 1568 1568 1569 1569
1516 1514 1512 1511 1510 1509 1508 1507 1506 1505 1503 1503 1502 1501 1501 1501 1501 1501 1502 1502 1504 1505 1506 1507 1508 1509 1510 1511 1513 1513 1515 1516 1517 1518 1519 1520 1520 1521 1522 1523 1525 1526 1527 1528 1529 1531 1532 1533 1535 1536 1537 1538 1539 1540 1541 1543 1544 1545 1546 1547 1548 1549 1551 1553 1555 1556 1558 1558 1559 1560 1561 1561 1561 1562 1563 1563 1564 1565 1566 1566 1567 1568 1568 1568 1568
1517 1515 1513 1512 1511 1510 1509 1507 1506 1505 1504 1503 1503 1502 1501 1501 1500 1501 1501 1502 1503 1504 1505 1506 1507 1509 1509 1511 1512 1513 1515 1516 1517 1518 1520 1520 1521 1522 1523 1524 1525 1526 1527 1528 1530 1531 1532 1533 1534 1534 1535 1536 1538 1539 1540 1541 1543 1544 1545 1546 1548 1550 1552 1553 1555 1556 1557 1558 1558 1559 1560 1560 1561 1561 1561 1562 1563 1564 1565 1565 1566 1567 1567 1567 1568
1518 1516 1515 1513 1512 1511 1510 1508 1507 1506 1504 1504 1503 1502 1502 1501 1501 1501 1502 1502 1503 1504 1505 1506 1507 1509 1510 1510 1512 1513 1515 1516 1517 1518 1519 1520 1521 1522 1523 1524 1525 1526 1527 1528 1530 1531 1531 1532 1533 1534 1534 1536 1537 1538 1539 1541 1542 1543 1545 1546 1548 1550 1551 1553 1554 1555 1556 1556 1557 1558 1558 1559 1560 1560 1560 1561 1562 1562 1563 1563 1564 1565 1566 1566 1566
1520 1518 1516 1514 1513 1511 1510 1508 1507 1506 1505 1504 1503 1502 1502 1501 1501 1501 1502 1503 1503 1504 1504 1505 1507 1510 1510 1511 1512 1514 1515 1516 1517 1518 1519 1520 1521 1522 1523 1524 1525 1526 1527 1528 1529 1530 1531 1532 1533 1533 1534 1535 1537 1538 1540 1541 1542 1543 1544 1546 1547 1549 1550 1552 1553 1554 1555 1555 1556 1557 1557 1558 1558 1559 1559 1559 1560 1560 1561 1562 1563 1564 1564 1564 1564
1521 1519 1517 1516 1514 1512 1510 1508 1507 1506 1505 1504 1504 1503 1502 1501 1502 1502 1502 1503 1503 1503 1504 1505 1507 1510 1511 1512 1514 1514 1515 1516 1518 1519 1519 1520 1521 1522 1523 1524 1525 1526 1527 1528 1529 1530 1531 1531 1532 1533 1534 1536 1537 1538 1540 1541 1542 1543 1545 1546 1547 1548 1549 1551 1552 1553 1554 1554 1555 1556 1556 1557 1557 1557 1558 1558 1558 1558 1559 1560 1561 1561 1562 1562 1562
1522 1520 1519 1517 1514 1513 1511 1509 1508 1506 1505 1505 1504 1503 1503 1502 1502 1502 1502 1503 1503 1504 1504 1505 1508 1510 1511 1513 1514 1514 1515 1517 1518 1519 1520 1521 1521 1522 1523 1524 1525 1526 1527 1528 1529 1530 1530 1531 1532 1533 1535 1536 1538 1539 1540 1541 1542 1544 1545 1546 1547 1548 1549 1550 1550 1551 1552 1553 1554 1554 1554 1555 1556 1556 1556 1556 1557 1557 1558 1559 1559 1559 1560 1560 1560
1524 1522 1520 1518 1516 1514 1512 1510 1509 1508 1507 1506 1505 1505 1504 1503 1503 1503 1503 1503 1504 1505 1506 1507 1508 1510 1512 1513 1514 1515 1516 1518 1519 1520 1520 1521 1521 1522 1523 1523 1525 1525 1526 1527 1528 1529 1530 1531 1532 1534 1535 1536 1538 1539 1540 1541 1542 1543 1544 1545 1546 1547 1548 1548 1549 1550 1550 1551 1552 1552 1552 1553 1553 1553 1554 1555 1556 1556 1557 1558 1557 1557 1557 1557 1557
1525 1523 1521 1519 1517 1515 1513 1512 1511 1509 1508 1508 1507 1507 1506 1506 1505 1505 1504 1505 1506 1508 1509 1510 1510 1511 1513 1514 1515 1516 1517 1518 1519 1520 1520 1521 1521 1521 1522 1523 1524 1525 1525 1526 1527 1528 1530 1531 1532 1534 1535 1536 1537 1539 1540 1541 1542 1543 1544 1545 1546 1546 1547 1547 1548 1548 1549 1549 1550 1550 1550 1551 1551 1552 1552 1553 1554 1554 1555 1555 1556 1556 1555 1554 1554
1526 1524 1523 1521 1519 1517 1515 1514 1513 1512 1511 1510 1509 1509 1508 1508 1507 1507 1507 1508 1509 1510 1511 1512 1512 1513 1515 1516 1516 1517 1518 1519 1519 1520 1521 1521 1522 1522 1522 1523 1523 1524 1524 1525 1526 1527 1529 1531 1532 1533 1534 1536 1538 1539 1540 1541 1542 1543 1544 1544 1545 1546 1546 1546 1547 1547 1547 1548 1548 1548 1548 1549 1549 1550 1551 1551 1552 1553 1553 1553 1554 1554 1553 1552 1552
1527 1525 1524 1523 1521 1519 1517 1516 1515 1514 1514 1512 1512 1511 1510 1510 1510 1509 1510 1510 1511 1511 1512 1513 1514 1514 1515 1516 1517 1516 1517 1519 1520 1521 1521 1522 1522 1522 1522 1523 1524 1524 1524 1525 1526 1527 1528 1529 1531 1533 1535 1537 1539 1539 1540 1541 1542 1543 1543 1543 1544 1544 1545 1545 1545 1546 1546 1546 1547 1547 1547 1548 1548 1549 1549 1550 1550 1551 1552 1552 1552 1552 1552 1552 1551
1528 1527 1526 1524 1523 1521 1519 1518 1518 1517 1516 1515 1514 1514 1513 1513 1513 1512 1512 1512 1512 1513 1514 1515 1515 1516 1516 1517 1517 1517 1518 1519 1520 1521 1522 1522 1522 1522 1523 1523 1523 1523 1523 1524 1526 1527 1528 1529 1531 1534 1536 1538 1539 1539 1540 1541 1542 1542 1542 1542 1542 1542 1543 1543 1544 1544 1545 1545 1546 1546 1546 1547 1547 1548 1548 1549 1549 1550 1550 1551 1551 1551 1551 1551 1551
1530 1529 1527 1526 1525 1523 1522 1520 1519 1519 1518 1518 1517 1517 1516 1516 1516 1515 1515 1514 1514 1515 1516 1516 1517 1517 1517 1518 1518 1518 1519 1520 1521 1522 1522 1523 1523 1523 1523 1523 1523 1523 1524 1525 1526 1527 1529 1531 1533 1535 1537 1537 1538 1538 1539 1540 1540 1541 1541 1541 1541 1541 1541 1542 1542 1543 1543 1544 1544 1545 1545 1546 1546 1547 1547 1547 1548 1549 1549 1549 1550 1550 1550 1550 1550
1533 1531 1530 1528 1527 1525 1524 1523 1522 1521 1521 1520 1520 1520 1519 1519 1519 1518 1517 1517 1516 1516 1517 1518 1519 1519 1519 1519 1519 1519 1519 1520 1521 1521 1522 1523 1523 1524 1525 1525 1525 1526 1527 1527 1527 1528 1530 1532 1534 1535 1536 1536 1537 1538 1539 1539 1539 1540 1540 1540 1540 1540 1540 1541 1541 1541 1542 1542 1543 1544 1544 1545 1545 1545 1546 1546 1547 1547 1547 1548 1549 1549 1550 1550 1550
1535 1534 1532 1531 1529 1528 1527 1526 1525 1525 1524 1524 1523 1523 1522 1522 1522 1521 1521 1520 1519 1519 1519 1520 1520 1521 1521 1521 1521 1521 1521 1521 1521 1522 1523 1524 1525 1526 1526 1527 1527 1528 1528 1528 1530 1531 1532 1533 1534 1535 1535 1536 1537 1538 1538 1538 1538 1538 1538 1539 1539 1539 1539 1539 1540 1540 1541 1541 1542 1543 1543 1544 1544 1545 1545 1545 1545 1545 1546 1546 1547 1547 1548 1549 1549
1538 1536 1535 1533 1532 1530 1529 1528 1528 1528 1527 1527 1527 1526 1526 1526 1526 1525 1525 1524 1523 1522 1522 1522 1522 1523 1523 1523 1523 1523 1523 1523 1523 1523 1524 1525 1526 1527 1527 1528 1528 1528 1529 1530 1531 1532 1533 1534 1534 1535 1535 1536 1537 1537 1537 1537 1537 1537 1537 1538 1538 1538 1539 1539 1539 1540 1540 1541 1541 1542 1543 1544 1544 1544 1544 1544 1544 1544 1544 1544 1545 1545 1546 1547 1548
1540 1538 1537 1536 1535 1533 1533 1532 1531 1531 1530 1530 1529 1528 1528 1528 1528 1528 1527 1527 1526 1525 1525 1525 1525 1525 1525 1525 1525 1525 1525 1525 1525 1525 1525 1526 1527 1527 1528 1528 1529 1529 1530 1531 1531 1532 1533 1533 1534 1534 1535 1536 1537 1537 1536 1536 1536 1536 1537 1537 1537 1538 1538 1538 1539 1540 1540 1541 1541 1542 1543 1543 1544 1543 1543 1543 1543 1543 1543 1543 1543 1544 1545 1546 1546
1541 1540 1539 1539 1538 1537 1536 1535 1535 1534 1533 1533 1532 1531 1531 1530 1530 1530 1529 1529 1528 1527 1527 1527 1527 1526 1526 1526 1526 1527 1527 1526 1526 1527 1526 1527 1528 1528 1528 1528 1529 1530 1531 1531 1532 1532 1532 1532 1533 1534 1534 1535 1536 1536 1536 1536 1536 1536 1536 1537 1537 1538 1538 1539 1539 1540 1540 1541 1541 1541 1541 1542 1543 1542 1542 1542 1542 1542 1542 1542 1543 1543 1544 1545 1545
1543 1542 1541 1541 1540 1540 1539 1538 1538 1537 1536 1536 1534 1533 1533 1533 1532 1532 1531 1530 1530 1529 1529 1528 1528 1528 1528 1527 1528 1528 1528 1527 1527 1528 1528 1528 1528 1528 1528 1528 1529 1530 1531 1531 1531 1531 1531 1532 1532 1533 1534 1534 1535 1536 1536 1537 1537 1536 1536 1537 1537 1538 1539 1539 1540 1540 1540 1540 1540 1540 1540 1541 1541 1541 1541 1541 1542 1542 1543 1543 1543 1544 1544 1544 1544
1544 1544 1543 1543 1542 1542 1541 1541 1540 1539 1539 1538 1537 1536 1535 1535 1534 1534 1533 1533 1532 1531 1531 1530 1530 1529 1529 1528 1529 1529 1529 1528 1528 1529 1529 1529 1528 1528 1528 1529 1529 1530 1530 1531 1531 1531 1531 1531 1532 1533 1533 1534 1535 1536 1537 1537 1537 1537 1537 1537 1538 1538 1539 1539 1539 1540 1540 1540 1540 1539 1539 1540 1540 1540 1540 1541 1542 1543 1543 1544 1545 1545 1545 1545 1546
1546 1546 1545 1545 1545 1544 1543 1542 1542 1541 1541 1540 1539 1538 1538 1537 1537 1536 1535 1535 1534 1534 1533 1532 1532 1531 1531 1530 1530 1530 1529 1529 1529 1529 1529 1529 1529 1529 1529 1529 1530 1530 1530 1531 1531 1531 1531 1531 1531 1533 1534 1535 1536 1537 1537 1537 1537 1537 1538 1538 1538 1538 1538 1538 1538 1539 1539 1539 1539 1539 1539 1539 1540 1540 1540 1541 1542 1542 1543 1544 1544 1545 1545 1546 1547
1548 1548 1548 1547 1547 1546 1545 1544 1544 1543 1543 1542 1541 1540 1539 1539 1538 1537 1537 1536 1536 1536 1535 1534 1534 1533 1532 1532 1532 1531 1531 1531 1530 1530 1530 1530 1530 1530 1530 1530 1530 1530 1531 1531 1531 1531 1532 1532 1533 1534 1534 1535 1536 1537 1537 1538 1538 1538 1538 1538 1538 1538 1538 1538 1538 1538 1538 1538 1538 1539 1539 1540 1540 1541 1541 1542 1542 1542 1543 1543 1544 1544 1545 1546 1547
1550 1550 1550 1550 1549 1548 1547 1547 1546 1546 1545 1544 1543 1542 1542 1541 1540 1539 1539 1538 1538 1537 1537 1536 1535 1535 1534 1534 1533 1533 1532 1532 1531 1531 1531 1531 1531 1531 1531 1531 1531 1531 1531 1532 1532 1532 1533 1534 1534 1535 1535 1536 1536 1537 1537 1538 1538 1538 1538 1538 1538 1537 1537 1537 1537 1537 1537 1538 1538 1539 1540 1540 1541 1541 1542 1542 1543 1543 1543 1543 1544 1545 1545 1546 1546
1553 1552 1552 1552 1551 1551 1550 1549 1549 1548 1548 1547 1546 1545 1545 1544 1543 1542 1541 1540 1540 1539 1538 1538 1537 1536 1536 1535 1535 1534 1534 1533 1533 1533 1533 1533 1533 1533 1533 1533 1533 1533 1533 1533 1533 1534 1534 1535 1535 1535 1536 1536 1537 1537 1538 1538 1538 1538 1538 1538 1538 1537 1537 1536 1537 1537 1537 1538 1538 1539 1540 1541 1542 1543 1543 1543 1543 1543 1543 1543 1544 1545 1545 1546 1546
1555 1555 1554 1553 1553 1553 1552 1552 1552 1551 1550 1550 1549 1548 1547 1546 1545 1544 1543 1543 1542 1541 1540 1539 1538 1537 1537 1536 1536 1535 1535 1535 1535 1535 1534 1534 1534 1534 1534 1534 1534 1534 1534 1534 1534 1534 1535 1535 1536 1536 1537 1537 1537 1538 1538 1538 1538 1538 1538 1538 1537 1537 1537 1536 1536 1537 1537 1538 1538 1539 1540 1541 1542 1543 1543 1544 1544 1544 1544 1544 1545 1545 1545 1546 1546
1557 1557 1557 1555 1555 1555 1555 1554 1554 1553 1553 1552 1551 1551 1550 1549 1547 1546 1545 1545 1544 1543 1542 1541 1540 1539 1538 1537 1537 1537 1536 1536 1536 1536 1535 1535 1535 1534 1534 1534 1534 1534 1534 1534 1535 1535 1536 1536 1537 1537 1537 1537 1537 1537 1537 1538 1538 1537 1537 1537 1537 1537 1537 1537 1537 1537 1538 1538 1539 1539 1540 1541 1542 1542 1543 1544 1544 1544 1544 1544 1545 1544 1545 1545 1546
1559 1559 1558 1558 1557 1557 1557 1556 1556 1555 1555 1554 1553 1552 1552 1551 1550 1549 1548 1547 1545 1544 1544 1543 1542 1541 1540 1539 1539 1538 1537 1537 1537 1536 1536 1536 1536 1536 1535 1535 1535 1535 1535 1535 1535 1535 1536 1536 1537 1537 1537 1537 1537 1537 1537 1538 1538 1537 1537 1537 1537 1537 1537 1537 1537 1537 1538 1538 1538 1539 1539 1540 1541 1542 1542 1543 1544 1544 1544 1544 1545 1544 1544 1545 1545
1560 1559 1559 1560 1560 1559 1559 1558 1558 1557 1557 1556 1555 1554 1553 1553 1552 1552 1551 1550 1549 1547 1546 1544 1543 1543 1542 1541 1540 1540 1539 1538 1538 1537 1537 1537 1537 1537 1536 1536 1536 1535 1535 1535 1536 1536 1536 1537 1537 1538 1538 1537 1537 1537 1537 1537 1538 1537 1537 1537 1537 1537 1537 1537 1537 1537 1538 1538 1538 1539 1539 1540 1541 1542 1543 1543 1543 1544 1544 1544 1545 1545 1545 1545 1546
1562 1562 1561 1561 1561 1561 1560 1560 1560 1559 1559 1558 1557 1556 1555 1555 1554 1553 1553 1552 1552 1551 1549 1547 1545 1544 1543 1542 1542 1541 1540 1539 1539 1538 1538 1538 1538 1538 1537 1537 1536 1536 1536 1537 1537 1538 1538 1538 1539 1539 1538 1538 1538 1537 1537 1538 1538 1538 1538 1538 1538 1538 1538 1538 1538 1538 1538 1539 1539 1540 1540 1541 1542 1543 1543 1543 1544 1544 1544 1544 1545 1545 1545 1546 1546
1565 1564 1563 1563 1562 1562 1562 1561 1561 1560 1560 1560 1559 1558 1557 1556 1556 1555 1554 1554 1553 1553 1552 1551 1549 1547 1545 1543 1542 1541 1541 1540 1540 1539 1539 1539 1539 1539 1539 1539 1539 1539 1538 1538 1538 1538 1538 1538 1538 1538 1538 1538 1537 1537 1537 1537 1538 1538 1539 1539 1539 1539 1538 1538 1538 1538 1539 1539 1539 1540 1541 1542 1542 1543 1543 1543 1543 1543 1543 1544 1544 1544 1545 1545 1546
1565 1565 1565 1564 1564 1563 1563 1562 1562 1561 1561 1561 1561 1560 1559 1558 1557 1557 1556 1555 1555 1554 1554 1553 1552 1550 1548 1546 1544 1542 1541 1541 1540 1540 1540 1540 1539 1539 1540 1541 1540 1540 1539 1539 1539 1538 1538 1538 1538 1538 1537 1537 1537 1537 1537 1537 1537 1537 1538 1538 1538 1538 1538 1538 1538 1539 1539 1540 1540 1540 1541 1542 1542 1543 1543 1543 1543 1543 1543 1544 1544 1544 1544 1545 1545
1566 1565 1565 1565 1565 1565 1565 1564 1563 1563 1563 1563 1562 1561 1561 1560 1559 1558 1558 1557 1556 1556 1555 1554 1553 1552 1550 1549 1547 1545 1543 1542 1541 1541 1541 1540 1540 1540 1540 1541 1541 1541 1540 1540 1540 1539 1539 1539 1538 1538 1538 1538 1538 1537 1537 1537 1537 1537 1537 1538 1538 1537 1538 1538 1539 1539 1540 1541 1541 1542 1542 1543 1543 1543 1543 1543 1543 1544 1544 1544 1544 1545 1545 1545 1545
1568 1567 1566 1566 1566 1566 1566 1566 1565 1565 1565 1564 1564 1563 1562 1562 1561 1560 1560 1559 1558 1557 1557 1556 1555 1553 1551 1550 1549 1548 1547 1545 1544 1543 1543 1542 1542 1542 1542 1542 1542 1541 1542 1542 1541 1541 1540 1539 1539 1539 1539 1539 1538 1538 1538 1538 1538 1538 1538 1538 1538 1539 1539 1540 1540 1541 1542 1543 1543 1543 1544 1544 1543 1543 1543 1544 1544 1544 1544 1545 1545 1545 1545 1545 1545
1571 1569 1568 1568 1568 1568 1568 1568 1568 1567 1566 1566 1566 1565 1564 1564 1563 1562 1561 1561 1560 1559 1558 1557 1556 1554 1553 1551 1550 1550 1550 1549 1548 1547 1546 1545 1545 1545 1544 1544 1543 1543 1542 1542 1542 1542 1541 1540 1539 1539 1539 1539 1539 1538 1538 1538 1538 1538 1539 1539 1540 1540 1541 1541 1542 1542 1543 1543 1544 1544 1544 1543 1544 1544 1544 1545 1544 1544 1544 1545 1545 1545 1545 1545 1544
1573 1572 1571 1570 1570 1570 1570 1569 1569 1569 1568 1567 1567 1567 1566 1565 1565 1564 1563 1562 1561 1560 1560 1559 1558 1556 1555 1553 1552 1551 1552 1552 1551 1550 1549 1548 1547 1546 1546 1545 1545 1544 1543 1543 1542 1542 1542 1541 1540 1540 1539 1539 1539 1539 1538 1538 1539 1539 1540 1540 1541 1541 1541 1542 1542 1543 1543 1543 1543 1543 1543 1544 1544 1545 1545 1545 1545 1545 1545 1545 1545 1545 1545 1545 1545
1574 1573 1573 1573 1572 1572 1572 1571 1570 1570 1569 1569 1568 1567 1567 1566 1566 1565 1564 1564 1563 1562 1561 1560 1559 1558 1556 1555 1554 1553 1553 1553 1552 1552 1551 1550 1549 1548 1547 1546 1546 1545 1544 1544 1543 1542 1542 1541 1541 1540 1540 1539 1540 1540 1540 1540 1540 1540 1540 1541 1541 1542 1542 1542 1542 1542 1542 1542 1542 1542 1542 1543 1544 1544 1544 1544 1545 1546 1546 1546 1546 1546 1545 1545 1545
1574 1574 1574 1573 1573 1573 1572 1572 1571 1571 1570 1569 1568 1568 1567 1567 1566 1566 1565 1564 1564 1563 1562 1561 1561 1559 1558 1556 1555 1555 1554 1554 1554 1553 1552 1551 1550 1549 1548 1548 1547 1546 1545 1544 1543 1542 1542 1541 1541 1540 1540 1539 1539 1540 1540 1540 1540 1541 1541 1541 1542 1542 1542 1542 1542 1542 1542 1542 1542 1542 1542 1543 1544 1544 1544 1545 1546 1546 1545 1545 1545 1546 1546 1545 1545
1575 1574 1574 1574 1574 1573 1573 1573 1572 1571 1570 1570 1569 1568 1568 1568 1567 1566 1566 1565 1564 1564 1563 1562 1561 1560 1559 1558 1557 1556 1556 1555 1554 1553 1553 1552 1551 1550 1549 1548 1547 1546 1545 1544 1543 1542 1542 1541 1541 1540 1540 1539 1539 1539 1539 1539 1540 1540 1541 1541 1541 1541 1541 1541 1541 1541 1541 1541 1542 1543 1543 1543 1544 1545 1545 1545 1545 1545 1545 1545 1545 1545 1546 1546 1546
1575 1575 1574 1574 1574 1574 1573 1573 1573 1572 1571 1571 1570 1569 1569 1568 1568 1567 1566 1566 1565 1564 1563 1562 1562 1561 1560 1559 1558 1557 1557 1556 1555 1554 1553 1552 1551 1551 1550 1549 1547 1546 1545 1544 1543 1542 1542 1542 1541 1541 1540 1540 1539 1539 1539 1539 1539 1539 1539 1540 1540 1540 1540 1540 1540 1540 1540 1541 1542 1543 1544 1544 1544 1545 1545 1545 1545 1545 1545 1545 1545 1545 1545 1545 1545
1574 1574 1575 1575 1575 1574 1574 1574 1573 1572 1572 1571 1571 1570 1569 1569 1568 1567 1566 1566 1565 1564 1563 1563 1562 1561 1560 1559 1559 1558 1557 1556 1555 1554 1553 1553 1552 1551 1551 1549 1548 1546 1546 1545 1544 1543 1542 1542 1541 1541 1540 1540 1539 1539 1539 1539 1539 1539 1539 1539 1539 1539 1539 1539 1540 1540 1540 1541 1541 1542 1543 1543 1544 1544 1544 1544 1545 1545 1544 1544 1544 1545 1545 1545 1545
1574 1574 1574 1575 1575 1575 1574 1574 1573 1572 1572 1571 1571 1570 1569 1569 1568 1567 1566 1566 1565 1564 1563 1562 1562 1561 1560 1559 1558 1557 1557 1556 1555 1555 1554 1553 1552 1552 1551 1549 1548 1547 1546 1545 1544 1543 1542 1542 1541 1541 1540 1539 1539 1538 1538 1538 1538 1538 1538 1538 1538 1538 1539 1539 1539 1540 1540 1540 1541 1541 1542 1542 1543 1543 1543 1543 1544 1544 1544 1544 1544 1544 1544 1544 1545
1574 1574 1574 1574 1575 1575 1574 1574 1573 1572 1572 1572 1571 1570 1569 1569 1568 1567 1566 1566 1565 1564 1563 1562 1561 1560 1559 1558 1557 1557 1556 1555 1555 1554 1554 1553 1552 1552 1550 1549 1548 1547 1547 1545 1544 1544 1543 1542 1541 1541 1540 1539 1538 1538 1538 1538 1537 1537 1537 1537 1537 1537 1538 1538 1538 1539 1539 1540 1540 1541 1541 1541 1542 1542 1542 1542 1543 1543 1544 1544 1544 1544 1543 1544 1545
1574 1574 1574 1574 1574 1574 1574 1574 1573 1572 1572 1571 1571 1570 1569 1568 1568 1567 1566 1565 1565 1564 1563 1562 1560 1559 1558 1558 1557 1556 1555 1554 1554 1554 1553 1553 1552 1551 1550 1549 1548 1548 1547 1546 1545 1544 1543 1542 1541 1541 1539 1539 1538 1538 1538 1537 1537 1537 1537 1536 1536 1536 1537 1537 1537 1538 1538 1538 1539 1540 1540 1540 1540 1541 1541 1541 1541 1542 1543 1543 1543 1543 1543 1544 1544
1574 1574 1574 1574 1574 1574 1574 1573 1573 1572 1572 1571 1570 1570 1569 1568 1567 1567 1566 1565 1564 1563 1562 1561 1560 1559 1558 1557 1556 1555 1555 1554 1553 1553 1552 1552 1551 1551 1550 1549 1548 1547 1547 1546 1545 1544 1543 1542 1541 1541 1539 1539 1538 1538 1537 1537 1537 1536 1536 1536 1536 1535 1535 1535 1536 1536 1537 1537 1538 1538 1539 1539 1539 1540 1540 1540 1540 1541 1541 1541 1542 1542 1543 1543 1543
1574 1574 1574 1574 1574 1574 1573 1573 1572 1572 1571 1570 1570 1569 1568 1568 1567 1566 1565 1564 1564 1563 1562 1561 1560 1559 1557 1556 1556 1555 1554 1553 1553 1552 1552 1551 1551 1550 1549 1549 1548 1547 1546 1546 1545 1544 1543 1542 1541 1540 1539 1539 1538 1537 1537 1537 1536 1536 1535 1535 1535 1535 1534 1534 1534 1535 1535 1536 1537 1537 1538 1538 1538 1539 1539 1539 1540 1540 1540 1540 1540 1541 1542 1543 1543